Tracking 26492 objects as of 8-Dec-2022
HD Live streaming from Space Station
objects crossing your sky now

NAVSTAR 79 (USA 304)

Track NAVSTAR 79 (USA 304) now!
NAVSTAR 79 (USA 304) is classified as:


NORAD ID: 45854
Int'l Code: 2020-041A
Perigee: 20,111.8 km
Apogee: 20,266.2 km
Inclination: 55.7 °
Period: 718.0 minutes
Semi major axis: 26559 km
RCS: Unknown
Launch date: June 30, 2020
Source: United States (US)
Launch site: AIR FORCE EASTERN TEST RANGE (AFETR)
PRN: 23
aabbcc
Your satellite tracking list
Your tracking list is empty




NASA's NSSDC Master Catalog

Two Line Element Set (TLE):
1 45854U 20041A   22341.40841462 -.00000070  00000-0  00000-0 0  9992
2 45854  55.6587  79.4490 0029064 182.2567 181.4877  2.00567937 18216
Source of the keplerian elements: AFSPC